Tracking 35331 objects as of 14-Sep-2026
HD Live streaming from Space Station
objects crossing your sky now

COSMOS 1643


COSMOS 1643 is no longer on orbit


NORAD ID: 15634
Int'l Code: 1985-026A
Launch date: March 25, 1985
Source: Commonwealth of Independent States (former USSR) (CIS)
Launch site: TYURATAM MISSILE AND SPACE COMPLEX (TTMTR)
Decay date: 1985-10-18
Your satellite tracking list
Your tracking list is empty




NASA's NSSDC Master Catalog

Two Line Element Set (TLE):
1 15634U 85026  A 85291.77655488  .00300666 +80969-5 +19079-3 0  9992
2 15634 064.7456 317.8391 0018957 079.8456 280.7188 16.16904960033376
Source of the keplerian elements: AFSPC